﻿測定場所 (Monitoring sites),日付 (Measurement date),時間 (Measurement time),線量率 最大値 (max) μGy/h,線量率 最小値 (min) μGy/h,線量率 平均値 (average) μGy/h,
江戸川 (Edogawa),2013-06-09,23:01～24:00,0.100,0.0908,0.0959,
江戸川 (Edogawa),2013-06-09,22:01～23:00,0.102,0.0880,0.0959,
江戸川 (Edogawa),2013-06-09,21:01～22:00,0.0990,0.0898,0.0956,
江戸川 (Edogawa),2013-06-09,20:01～21:00,0.101,0.0911,0.0960,
江戸川 (Edogawa),2013-06-09,19:01～20:00,0.101,0.0922,0.0961,
江戸川 (Edogawa),2013-06-09,18:01～19:00,0.101,0.0909,0.0960,
江戸川 (Edogawa),2013-06-09,17:01～18:00,0.100,0.0901,0.0955,
江戸川 (Edogawa),2013-06-09,16:01～17:00,0.102,0.0893,0.0954,
江戸川 (Edogawa),2013-06-09,15:01～16:00,0.102,0.0871,0.0956,
江戸川 (Edogawa),2013-06-09,14:01～15:00,0.101,0.0908,0.0957,
江戸川 (Edogawa),2013-06-09,13:01～14:00,0.102,0.0879,0.0956,
江戸川 (Edogawa),2013-06-09,12:01～13:00,0.103,0.0913,0.0958,
江戸川 (Edogawa),2013-06-09,11:01～12:00,0.102,0.0899,0.0958,
江戸川 (Edogawa),2013-06-09,10:01～11:00,0.101,0.0886,0.0949,
江戸川 (Edogawa),2013-06-09,09:01～10:00,0.101,0.0893,0.0960,
江戸川 (Edogawa),2013-06-09,08:01～09:00,0.101,0.0903,0.0960,
江戸川 (Edogawa),2013-06-09,07:01～08:00,0.100,0.0894,0.0958,
江戸川 (Edogawa),2013-06-09,06:01～07:00,0.101,0.0880,0.0955,
江戸川 (Edogawa),2013-06-09,05:01～06:00,0.100,0.0895,0.0955,
江戸川 (Edogawa),2013-06-09,04:01～05:00,0.102,0.0886,0.0956,
江戸川 (Edogawa),2013-06-09,03:01～04:00,0.101,0.0887,0.0951,
江戸川 (Edogawa),2013-06-09,02:01～03:00,0.101,0.0902,0.0959,
江戸川 (Edogawa),2013-06-09,01:01～02:00,0.103,0.0897,0.0962,
江戸川 (Edogawa),2013-06-09,00:01～01:00,0.102,0.0888,0.0961,
江戸川 (Edogawa),2013-06-08,23:01～24:00,0.103,0.0914,0.0961,
江戸川 (Edogawa),2013-06-08,22:01～23:00,0.100,0.0885,0.0953,
江戸川 (Edogawa),2013-06-08,21:01～22:00,0.101,0.0894,0.0956,
江戸川 (Edogawa),2013-06-08,20:01～21:00,0.0999,0.0882,0.0954,
江戸川 (Edogawa),2013-06-08,19:01～20:00,0.100,0.0920,0.0961,
江戸川 (Edogawa),2013-06-08,18:01～19:00,0.103,0.0904,0.0957,
江戸川 (Edogawa),2013-06-08,17:01～18:00,0.101,0.0895,0.0952,
江戸川 (Edogawa),2013-06-08,16:01～17:00,0.101,0.0893,0.0953,
江戸川 (Edogawa),2013-06-08,15:01～16:00,0.102,0.0887,0.0957,
江戸川 (Edogawa),2013-06-08,14:01～15:00,0.100,0.0906,0.0953,
江戸川 (Edogawa),2013-06-08,13:01～14:00,0.100,0.0882,0.0950,
江戸川 (Edogawa),2013-06-08,12:01～13:00,0.104,0.0889,0.0943,
江戸川 (Edogawa),2013-06-08,11:01～12:00,0.101,0.0901,0.0958,
江戸川 (Edogawa),2013-06-08,10:01～11:00,0.102,0.0900,0.0951,
江戸川 (Edogawa),2013-06-08,09:01～10:00,0.105,0.0899,0.0962,
江戸川 (Edogawa),2013-06-08,08:01～09:00,0.104,0.0900,0.0958,
江戸川 (Edogawa),2013-06-08,07:01～08:00,0.102,0.0894,0.0955,
江戸川 (Edogawa),2013-06-08,06:01～07:00,0.103,0.0909,0.0963,
江戸川 (Edogawa),2013-06-08,05:01～06:00,0.104,0.0898,0.0953,
江戸川 (Edogawa),2013-06-08,04:01～05:00,0.100,0.0910,0.0954,
江戸川 (Edogawa),2013-06-08,03:01～04:00,0.104,0.0918,0.0969,
江戸川 (Edogawa),2013-06-08,02:01～03:00,0.102,0.0912,0.0969,
江戸川 (Edogawa),2013-06-08,01:01～02:00,0.100,0.0914,0.0962,
江戸川 (Edogawa),2013-06-08,00:01～01:00,0.103,0.0894,0.0963,
江戸川 (Edogawa),2013-06-07,23:01～24:00,0.100,0.0887,0.0954,
江戸川 (Edogawa),2013-06-07,22:01～23:00,0.100,0.0887,0.0952,
江戸川 (Edogawa),2013-06-07,21:01～22:00,0.0999,0.0888,0.0956,
江戸川 (Edogawa),2013-06-07,20:01～21:00,0.101,0.0909,0.0949,
江戸川 (Edogawa),2013-06-07,19:01～20:00,0.100,0.0881,0.0949,
江戸川 (Edogawa),2013-06-07,18:01～19:00,0.103,0.0887,0.0952,
江戸川 (Edogawa),2013-06-07,17:01～18:00,0.100,0.0902,0.0951,
江戸川 (Edogawa),2013-06-07,16:01～17:00,0.100,0.0905,0.0953,
江戸川 (Edogawa),2013-06-07,15:01～16:00,0.104,0.0889,0.0952,
江戸川 (Edogawa),2013-06-07,14:01～15:00,0.100,0.0860,0.0949,
江戸川 (Edogawa),2013-06-07,13:01～14:00,0.104,0.0905,0.0953,
江戸川 (Edogawa),2013-06-07,12:01～13:00,0.101,0.0897,0.0955,
江戸川 (Edogawa),2013-06-07,11:01～12:00,0.0993,0.0898,0.0954,
江戸川 (Edogawa),2013-06-07,10:01～11:00,0.102,0.0900,0.0950,
江戸川 (Edogawa),2013-06-07,09:01～10:00,0.103,0.0879,0.0953,
江戸川 (Edogawa),2013-06-07,08:01～09:00,0.0999,0.0909,0.0952,
江戸川 (Edogawa),2013-06-07,07:01～08:00,0.0997,0.0892,0.0951,
江戸川 (Edogawa),2013-06-07,06:01～07:00,0.102,0.0891,0.0954,
江戸川 (Edogawa),2013-06-07,05:01～06:00,0.100,0.0893,0.0956,
江戸川 (Edogawa),2013-06-07,04:01～05:00,0.100,0.0889,0.0954,
江戸川 (Edogawa),2013-06-07,03:01～04:00,0.101,0.0863,0.0953,
江戸川 (Edogawa),2013-06-07,02:01～03:00,0.100,0.0896,0.0952,
江戸川 (Edogawa),2013-06-07,01:01～02:00,0.100,0.0896,0.0944,
江戸川 (Edogawa),2013-06-07,00:01～01:00,0.102,0.0896,0.0951,
江戸川 (Edogawa),2013-06-06,23:01～24:00,0.104,0.0907,0.0957,
江戸川 (Edogawa),2013-06-06,22:01～23:00,0.101,0.0889,0.0951,
江戸川 (Edogawa),2013-06-06,21:01～22:00,0.101,0.0896,0.0951,
江戸川 (Edogawa),2013-06-06,20:01～21:00,0.101,0.0896,0.0956,
江戸川 (Edogawa),2013-06-06,19:01～20:00,0.100,0.0861,0.0946,
江戸川 (Edogawa),2013-06-06,18:01～19:00,0.103,0.0910,0.0954,
江戸川 (Edogawa),2013-06-06,17:01～18:00,0.102,0.0893,0.0957,
江戸川 (Edogawa),2013-06-06,16:01～17:00,0.101,0.0886,0.0946,
江戸川 (Edogawa),2013-06-06,15:01～16:00,0.0979,0.0859,0.0916,
江戸川 (Edogawa),2013-06-06,14:01～15:00,0.0986,0.0831,0.0923,
江戸川 (Edogawa),2013-06-06,13:01～14:00,0.0995,0.0863,0.0919,
江戸川 (Edogawa),2013-06-06,12:01～13:00,0.0993,0.0869,0.0926,
江戸川 (Edogawa),2013-06-06,11:01～12:00,0.101,0.0876,0.0935,
江戸川 (Edogawa),2013-06-06,10:01～11:00,0.101,0.0891,0.0944,
江戸川 (Edogawa),2013-06-06,09:01～10:00,0.103,0.0876,0.0953,
江戸川 (Edogawa),2013-06-06,08:01～09:00,0.102,0.0896,0.0949,
江戸川 (Edogawa),2013-06-06,07:01～08:00,0.100,0.0885,0.0953,
江戸川 (Edogawa),2013-06-06,06:01～07:00,0.100,0.0896,0.0949,
江戸川 (Edogawa),2013-06-06,05:01～06:00,0.101,0.0880,0.0948,
江戸川 (Edogawa),2013-06-06,04:01～05:00,0.102,0.0879,0.0951,
江戸川 (Edogawa),2013-06-06,03:01～04:00,0.102,0.0894,0.0948,
江戸川 (Edogawa),2013-06-06,02:01～03:00,0.100,0.0880,0.0944,
江戸川 (Edogawa),2013-06-06,01:01～02:00,0.102,0.0870,0.0954,
江戸川 (Edogawa),2013-06-06,00:01～01:00,0.101,0.0889,0.0948,
江戸川 (Edogawa),2013-06-05,23:01～24:00,0.101,0.0878,0.0949,
江戸川 (Edogawa),2013-06-05,22:01～23:00,0.101,0.0904,0.0946,
江戸川 (Edogawa),2013-06-05,21:01～22:00,0.101,0.0875,0.0950,
江戸川 (Edogawa),2013-06-05,20:01～21:00,0.101,0.0875,0.0949,
江戸川 (Edogawa),2013-06-05,19:01～20:00,0.100,0.0887,0.0950,
江戸川 (Edogawa),2013-06-05,18:01～19:00,0.101,0.0890,0.0951,
江戸川 (Edogawa),2013-06-05,17:01～18:00,0.102,0.0890,0.0952,
江戸川 (Edogawa),2013-06-05,16:01～17:00,0.100,0.0909,0.0954,
江戸川 (Edogawa),2013-06-05,15:01～16:00,0.101,0.0881,0.0950,
江戸川 (Edogawa),2013-06-05,14:01～15:00,0.102,0.0901,0.0953,
江戸川 (Edogawa),2013-06-05,13:01～14:00,0.101,0.0889,0.0950,
江戸川 (Edogawa),2013-06-05,12:01～13:00,0.100,0.0901,0.0953,
江戸川 (Edogawa),2013-06-05,11:01～12:00,0.101,0.0878,0.0947,
江戸川 (Edogawa),2013-06-05,10:01～11:00,0.100,0.0888,0.0951,
江戸川 (Edogawa),2013-06-05,09:01～10:00,0.102,0.0891,0.0946,
江戸川 (Edogawa),2013-06-05,08:01～09:00,0.103,0.0906,0.0952,
江戸川 (Edogawa),2013-06-05,07:01～08:00,0.102,0.0905,0.0956,
江戸川 (Edogawa),2013-06-05,06:01～07:00,0.101,0.0903,0.0954,
江戸川 (Edogawa),2013-06-05,05:01～06:00,0.0987,0.0867,0.0941,
江戸川 (Edogawa),2013-06-05,04:01～05:00,0.101,0.0866,0.0945,
江戸川 (Edogawa),2013-06-05,03:01～04:00,0.101,0.0885,0.0947,
江戸川 (Edogawa),2013-06-05,02:01～03:00,0.101,0.0883,0.0945,
江戸川 (Edogawa),2013-06-05,01:01～02:00,0.100,0.0899,0.0946,
江戸川 (Edogawa),2013-06-05,00:01～01:00,0.102,0.0852,0.0945,
江戸川 (Edogawa),2013-06-04,23:01～24:00,0.100,0.0905,0.0950,
江戸川 (Edogawa),2013-06-04,22:01～23:00,0.101,0.0880,0.0942,
江戸川 (Edogawa),2013-06-04,21:01～22:00,0.0989,0.0881,0.0938,
江戸川 (Edogawa),2013-06-04,20:01～21:00,0.0998,0.0866,0.0949,
江戸川 (Edogawa),2013-06-04,19:01～20:00,0.100,0.0893,0.0946,
江戸川 (Edogawa),2013-06-04,18:01～19:00,0.103,0.0898,0.0945,
江戸川 (Edogawa),2013-06-04,17:01～18:00,0.103,0.0894,0.0944,
江戸川 (Edogawa),2013-06-04,16:01～17:00,0.0998,0.0881,0.0941,
江戸川 (Edogawa),2013-06-04,15:01～16:00,0.101,0.0878,0.0946,
江戸川 (Edogawa),2013-06-04,14:01～15:00,0.102,0.0886,0.0952,
江戸川 (Edogawa),2013-06-04,13:01～14:00,0.101,0.0895,0.0954,
江戸川 (Edogawa),2013-06-04,12:01～13:00,0.101,0.0909,0.0952,
江戸川 (Edogawa),2013-06-04,11:01～12:00,0.0994,0.0901,0.0948,
江戸川 (Edogawa),2013-06-04,10:01～11:00,0.102,0.0874,0.0949,
江戸川 (Edogawa),2013-06-04,09:01～10:00,0.101,0.0899,0.0954,
江戸川 (Edogawa),2013-06-04,08:01～09:00,0.100,0.0891,0.0949,
江戸川 (Edogawa),2013-06-04,07:01～08:00,0.104,0.0891,0.0953,
江戸川 (Edogawa),2013-06-04,06:01～07:00,0.100,0.0896,0.0949,
江戸川 (Edogawa),2013-06-04,05:01～06:00,0.101,0.0906,0.0949,
江戸川 (Edogawa),2013-06-04,04:01～05:00,0.100,0.0905,0.0953,
江戸川 (Edogawa),2013-06-04,03:01～04:00,0.102,0.0891,0.0944,
江戸川 (Edogawa),2013-06-04,02:01～03:00,0.101,0.0880,0.0949,
江戸川 (Edogawa),2013-06-04,01:01～02:00,0.0999,0.0886,0.0946,
江戸川 (Edogawa),2013-06-04,00:01～01:00,0.102,0.0886,0.0941,
江戸川 (Edogawa),2013-06-03,23:01～24:00,0.101,0.0886,0.0940,
江戸川 (Edogawa),2013-06-03,22:01～23:00,0.0989,0.0859,0.0944,
江戸川 (Edogawa),2013-06-03,21:01～22:00,0.0996,0.0862,0.0940,
江戸川 (Edogawa),2013-06-03,20:01～21:00,0.0992,0.0885,0.0936,
江戸川 (Edogawa),2013-06-03,19:01～20:00,0.101,0.0874,0.0946,
江戸川 (Edogawa),2013-06-03,18:01～19:00,0.100,0.0869,0.0939,
江戸川 (Edogawa),2013-06-03,17:01～18:00,0.101,0.0887,0.0950,
江戸川 (Edogawa),2013-06-03,16:01～17:00,0.102,0.0901,0.0947,
江戸川 (Edogawa),2013-06-03,15:01～16:00,0.101,0.0873,0.0948,
江戸川 (Edogawa),2013-06-03,14:01～15:00,0.0999,0.0890,0.0947,
江戸川 (Edogawa),2013-06-03,13:01～14:00,0.101,0.0877,0.0947,
江戸川 (Edogawa),2013-06-03,12:01～13:00,0.102,0.0894,0.0949,
江戸川 (Edogawa),2013-06-03,11:01～12:00,0.101,0.0895,0.0944,
江戸川 (Edogawa),2013-06-03,10:01～11:00,0.0998,0.0883,0.0941,
江戸川 (Edogawa),2013-06-03,09:01～10:00,0.0998,0.0886,0.0941,
江戸川 (Edogawa),2013-06-03,08:01～09:00,0.104,0.0877,0.0943,
江戸川 (Edogawa),2013-06-03,07:01～08:00,0.0983,0.0865,0.0935,
江戸川 (Edogawa),2013-06-03,06:01～07:00,0.100,0.0874,0.0935,
江戸川 (Edogawa),2013-06-03,05:01～06:00,0.0991,0.0872,0.0935,
江戸川 (Edogawa),2013-06-03,04:01～05:00,0.0996,0.0872,0.0930,
江戸川 (Edogawa),2013-06-03,03:01～04:00,0.100,0.0872,0.0933,
江戸川 (Edogawa),2013-06-03,02:01～03:00,0.100,0.0887,0.0933,
江戸川 (Edogawa),2013-06-03,01:01～02:00,0.0991,0.0884,0.0933,
江戸川 (Edogawa),2013-06-03,00:01～01:00,0.0999,0.0869,0.0938,
